| time (UTC) | temp C | wind direction | speed KPH | gust KPH | rain 1hr cm | rain 24hr cm | rain mn cm | humidity % | barometer mb |
| 20260506195025 | 10 | 34 | 16.1 | 29.0 | 0.00 | 0.00 | 0.00 | 80 | 1013.6 |
| 20260506194021 | 10 | 39 | 11.3 | 20.9 | 0.00 | 0.00 | 0.00 | 77 | 1013.4 |
| 20260506193016 | 10 | 25 | 14.5 | 25.7 | 0.00 | 0.00 | 0.00 | 75 | 1013.4 |
| 20260506192111 | 11 | 45 | 14.5 | 25.7 | 0.00 | 0.00 | 0.00 | 73 | 1013.2 |
| 20260506191106 | 11 | 21 | 9.7 | 22.5 | 0.00 | 0.00 | 0.00 | 71 | 1013.2 |
| 20260506185116 | 12 | 27 | 9.7 | 20.9 | 0.00 | 0.00 | 0.00 | 67 | 1013.0 |
| 20260506184051 | 12 | 45 | 11.3 | 25.7 | 0.00 | 0.00 | 0.00 | 66 | 1013.1 |
| 20260506183046 | 12 | 29 | 16.1 | 25.7 | 0.00 | 0.00 | 0.00 | 65 | 1013.0 |
| 20260506182041 | 12 | 49 | 16.1 | 25.7 | 0.00 | 0.00 | 0.00 | 64 | 1012.9 |
| 20260506181057 | 12 | 37 | 11.3 | 22.5 | 0.00 | 0.00 | 0.00 | 64 | 1013.0 |
| 20260506180031 | 12 | 53 | 12.9 | 22.5 | 0.00 | 0.00 | 0.00 | 63 | 1013.0 |
| 20260506175026 | 13 | 31 | 4.8 | 9.7 | 0.00 | 0.00 | 0.00 | 55 | 1012.8 |
| 20260506174022 | 13 | 18 | 3.2 | 11.3 | 0.00 | 0.00 | 0.00 | 54 | 1012.9 |
| 20260506173036 | 13 | 39 | 3.2 | 9.7 | 0.00 | 0.00 | 0.00 | 54 | 1013.0 |
| 20260506172111 | 13 | 35 | 4.8 | 9.7 | 0.00 | 0.00 | 0.00 | 54 | 1012.9 |
| 20260506171106 | 13 | 347 | 3.2 | 9.7 | 0.00 | 0.00 | 0.00 | 54 | 1013.0 |
| 20260506165056 | 13 | 29 | 6.4 | 9.7 | 0.00 | 0.00 | 0.00 | 57 | 1013.0 |
| 20260506164051 | 13 | 16 | 4.8 | 14.5 | 0.00 | 0.00 | 0.00 | 55 | 1012.9 |
| 20260506163127 | 13 | 45 | 9.7 | 17.7 | 0.00 | 0.03 | 0.00 | 56 | 1013.0 |
| 20260506162042 | 13 | 305 | 8.0 | 17.7 | 0.00 | 0.05 | 0.00 | 53 | 1012.8 |
| 20260506161037 | 13 | 339 | 9.7 | 20.9 | 0.00 | 0.05 | 0.00 | 51 | 1013.0 |
| 20260506160032 | 13 | 332 | 6.4 | 12.9 | 0.00 | 0.05 | 0.00 | 48 | 1013.0 |
| 20260506155047 | 15 | 337 | 1.6 | 6.4 | 0.00 | 0.05 | 0.00 | 43 | 1012.9 |
| 20260506154043 | 13 | 0 | 0.0 | 3.2 | 0.00 | 0.05 | 0.00 | 44 | 1013.0 |
| 20260506153037 | 13 | 321 | 3.2 | 6.4 | 0.00 | 0.05 | 0.00 | 47 | 1013.3 |
| 20260506152112 | 13 | 331 | 6.4 | 11.3 | 0.00 | 0.13 | 0.00 | 49 | 1013.3 |
| 20260506151107 | 13 | 27 | 4.8 | 14.5 | 0.00 | 0.13 | 0.00 | 45 | 1013.3 |
| 20260506150145 | 13 | 335 | 3.2 | 6.4 | 0.00 | 0.18 | 0.00 | 43 | 1013.4 |
| 20260506145057 | 14 | 18 | 6.4 | 12.9 | 0.00 | 0.18 | 0.00 | 45 | 1013.5 |
| 20260506144052 | 15 | 11 | 1.6 | 6.4 | 0.00 | 0.18 | 0.00 | 43 | 1013.7 |
| 20260506143047 | 14 | 339 | 3.2 | 12.9 | 0.00 | 0.18 | 0.00 | 45 | 1013.6 |
| 20260506142044 | 14 | 287 | 9.7 | 14.5 | 0.00 | 0.18 | 0.00 | 46 | 1013.8 |
| 20260506141037 | 15 | 266 | 3.2 | 11.3 | 0.00 | 0.18 | 0.00 | 44 | 1013.9 |
| 20260506140032 | 13 | 260 | 4.8 | 9.7 | 0.00 | 0.18 | 0.00 | 47 | 1014.0 |
| 20260506135027 | 13 | 260 | 4.8 | 11.3 | 0.00 | 0.18 | 0.00 | 48 | 1014.2 |
| 20260506134043 | 13 | 291 | 6.4 | 12.9 | 0.00 | 0.18 | 0.00 | 51 | 1014.3 |
| 20260506133019 | 13 | 18 | 4.8 | 17.7 | 0.00 | 0.18 | 0.00 | 50 | 1014.4 |
| 20260506132113 | 13 | 294 | 1.6 | 6.4 | 0.00 | 0.18 | 0.00 | 50 | 1014.4 |
| 20260506131108 | 13 | 302 | 4.8 | 6.4 | 0.00 | 0.18 | 0.00 | 53 | 1014.3 |
| 20260506125058 | 12 | 315 | 8.0 | 14.5 | 0.00 | 0.18 | 0.00 | 58 | 1014.4 |
| 20260506124053 | 12 | 17 | 9.7 | 17.7 | 0.00 | 0.18 | 0.00 | 56 | 1014.5 |
| 20260506123048 | 13 | 292 | 1.6 | 6.4 | 0.00 | 0.18 | 0.00 | 47 | 1014.5 |
| 20260506122043 | 13 | 229 | 3.2 | 6.4 | 0.00 | 0.18 | 0.00 | 49 | 1014.5 |
| 20260506121038 | 12 | 0.0 | 3.2 | 0.00 | 0.18 | 0.00 | 51 | 1014.6 | |
| 20260506120033 | 11 | 272 | 3.2 | 6.4 | 0.00 | 0.18 | 0.00 | 54 | 1014.8 |
| 20260506115048 | 11 | 317 | 6.4 | 9.7 | 0.00 | 0.18 | 0.00 | 56 | 1014.9 |
| 20260506114023 | 12 | 295 | 3.2 | 9.7 | 0.00 | 0.18 | 0.00 | 56 | 1014.9 |
| 20260506113019 | 12 | 244 | 1.6 | 6.4 | 0.00 | 0.18 | 0.00 | 54 | 1014.9 |
| 20260506112114 | 11 | 211 | 3.2 | 6.4 | 0.00 | 0.18 | 0.00 | 56 | 1015.0 |
| 20260506111108 | 11 | 112 | 3.2 | 6.4 | 0.00 | 0.18 | 0.00 | 58 | 1014.9 |
| 20260506110103 | 11 | 45 | 3.2 | 6.4 | 0.00 | 0.18 | 0.00 | 60 | 1014.9 |
| 20260506105058 | 10 | 339 | 3.2 | 6.4 | 0.00 | 0.18 | 0.00 | 62 | 1014.8 |
| 20260506104135 | 11 | 328 | 3.2 | 9.7 | 0.00 | 0.18 | 0.00 | 60 | 1015.0 |
| 20260506103129 | 11 | 196 | 3.2 | 6.4 | 0.00 | 0.18 | 0.00 | 60 | 1015.0 |
| 20260506102104 | 11 | 199 | 6.4 | 12.9 | 0.00 | 0.18 | 0.00 | 63 | 1015.2 |
| 20260506101059 | 10 | 211 | 3.2 | 6.4 | 0.00 | 0.18 | 0.00 | 66 | 1015.1 |
| 20260506100053 | 11 | 199 | 1.6 | 6.4 | 0.00 | 0.18 | 0.00 | 63 | 1015.3 |
| 20260506095028 | 11 | 91 | 1.6 | 6.4 | 0.00 | 0.18 | 0.00 | 61 | 1015.2 |
| 20260506094023 | 9 | 57 | 0.0 | 3.2 | 0.00 | 0.18 | 0.00 | 68 | 1015.3 |
| 20260506093018 | 9 | 303 | 3.2 | 6.4 | 0.00 | 0.18 | 0.00 | 70 | 1015.2 |
| 20260506092113 | 9 | 265 | 6.4 | 11.3 | 0.00 | 0.18 | 0.00 | 70 | 1015.1 |
| 20260506091108 | 8 | 299 | 6.4 | 11.3 | 0.00 | 0.18 | 0.00 | 72 | 1015.2 |
| 20260506085119 | 8 | 224 | 3.2 | 6.4 | 0.00 | 0.18 | 0.00 | 75 | 1015.2 |
| 20260506084053 | 8 | 253 | 4.8 | 11.3 | 0.00 | 0.18 | 0.00 | 77 | 1015.0 |
| 20260506083048 | 8 | 267 | 3.2 | 6.4 | 0.00 | 0.18 | 0.00 | 76 | 1015.2 |
| 20260506082043 | 8 | 207 | 1.6 | 3.2 | 0.00 | 0.18 | 0.00 | 77 | 1015.2 |
| 20260506081059 | 8 | 0.0 | 3.2 | 0.00 | 0.18 | 0.00 | 76 | 1015.2 | |
| 20260506073019 | 8 | 315 | 0.0 | 3.2 | 0.00 | 0.18 | 0.00 | 78 | 1015.2 |
| 20260506072114 | 8 | 0.0 | 0.0 | 0.00 | 0.18 | 0.00 | 80 | 1015.2 | |
| 20260506071109 | 6 | 0.0 | 3.2 | 0.00 | 0.18 | 0.00 | 84 | 1015.0 | |
| 20260506070103 | 6 | 0.0 | 0.0 | 0.00 | 0.18 | 0.00 | 85 | 1015.1 | |
| 20260506062043 | 5 | 27 | 1.6 | 3.2 | 0.00 | 0.18 | 0.00 | 90 | 1014.8 |
| 20260506061038 | 4 | 45 | 1.6 | 3.2 | 0.00 | 0.18 | 0.00 | 90 | 1014.8 |
| 20260506051108 | 4 | 0.0 | 0.0 | 0.00 | 0.18 | 0.00 | 91 | 1014.3 | |
| 20260506050103 | 4 | 0.0 | 3.2 | 0.00 | 0.18 | 0.00 | 91 | 1014.3 | |
| 20260506045118 | 4 | 0.0 | 0.0 | 0.00 | 0.18 | 0.00 | 91 | 1014.3 | |
| 20260506044054 | 4 | 0.0 | 0.0 | 0.00 | 0.18 | 0.00 | 91 | 1014.4 | |
| 20260506043049 | 4 | 0.0 | 0.0 | 0.00 | 0.18 | 0.00 | 90 | 1014.5 | |
| 20260506042044 | 4 | 0.0 | 0.0 | 0.00 | 0.18 | 0.00 | 90 | 1014.5 | |
| 20260506041059 | 4 | 79 | 3.2 | 6.4 | 0.00 | 0.18 | 0.00 | 90 | 1014.7 |
| 20260506040034 | 3 | 101 | 3.2 | 6.4 | 0.00 | 0.18 | 0.00 | 91 | 1014.6 |
| 20260506035128 | 3 | 65 | 1.6 | 6.4 | 0.00 | 0.18 | 0.00 | 92 | 1014.8 |
| 20260506034023 | 3 | 61 | 1.6 | 3.2 | 0.00 | 0.18 | 0.00 | 93 | 1014.8 |
| 20260506033038 | 3 | 0.0 | 0.0 | 0.00 | 0.18 | 0.00 | 93 | 1014.8 | |
| 20260506032154 | 4 | 143 | 1.6 | 6.4 | 0.00 | 0.18 | 0.00 | 94 | 1014.8 |
| 20260506031108 | 3 | 0.0 | 0.0 | 0.00 | 0.18 | 0.00 | 94 | 1014.8 | |
| 20260506030143 | 3 | 68 | 1.6 | 3.2 | 0.00 | 0.18 | 0.00 | 94 | 1014.7 |
| 20260506025057 | 3 | 0.0 | 0.0 | 0.00 | 0.18 | 0.00 | 94 | 1014.7 | |
| 20260506024053 | 3 | 0.0 | 0.0 | 0.00 | 0.18 | 0.00 | 94 | 1014.7 | |
| 20260506023049 | 3 | 0.0 | 3.2 | 0.00 | 0.18 | 0.00 | 94 | 1014.6 | |
| 20260506022043 | 3 | 15 | 0.0 | 3.2 | 0.00 | 0.18 | 0.00 | 94 | 1014.6 |
| 20260506021038 | 3 | 56 | 1.6 | 3.2 | 0.00 | 0.18 | 0.00 | 94 | 1014.9 |
| 20260506020033 | 3 | 0.0 | 3.2 | 0.00 | 0.18 | 0.00 | 94 | 1014.8 | |
| 20260506015028 | 3 | 0.0 | 0.0 | 0.00 | 0.18 | 0.00 | 94 | 1014.8 | |
| 20260506014023 | 3 | 0.0 | 0.0 | 0.00 | 0.18 | 0.00 | 94 | 1014.7 | |
| 20260506013018 | 3 | 0.0 | 0.0 | 0.00 | 0.18 | 0.00 | 94 | 1014.8 | |
| 20260506012113 | 4 | 56 | 1.6 | 3.2 | 0.00 | 0.18 | 0.00 | 94 | 1014.8 |
| 20260506011131 | 4 | 75 | 3.2 | 6.4 | 0.00 | 0.18 | 0.00 | 94 | 1014.9 |
| 20260506010124 | 4 | 0.0 | 0.0 | 0.00 | 0.18 | 0.00 | 94 | 1014.8 | |
| 20260506005058 | 4 | 45 | 1.6 | 3.2 | 0.00 | 0.18 | 0.00 | 94 | 1015.0 |
| 20260506004054 | 4 | 45 | 0.0 | 3.2 | 0.00 | 0.18 | 0.00 | 93 | 1015.1 |
| 20260506003049 | 4 | 78 | 3.2 | 3.2 | 0.00 | 0.18 | 0.00 | 93 | 1015.0 |
| 20260506002044 | 5 | 0.0 | 0.0 | 0.00 | 0.18 | 0.00 | 93 | 1015.2 | |
| 20260506001119 | 5 | 0.0 | 0.0 | 0.00 | 0.18 | 0.00 | 93 | 1015.2 | |
| 20260506000034 | 5 | 225 | 0.0 | 3.2 | 0.00 | 0.18 | 0.00 | 93 | 1015.2 |
| 20260505235029 | 5 | 0.0 | 3.2 | 0.00 | 0.18 | 0.00 | 92 | 1015.1 | |
| 20260505234024 | 5 | 0.0 | 0.0 | 0.00 | 0.18 | 0.00 | 92 | 1015.2 | |
| 20260505233040 | 5 | 0.0 | 0.0 | 0.00 | 0.18 | 0.00 | 92 | 1015.2 | |
| 20260505232114 | 5 | 0.0 | 0.0 | 0.00 | 0.18 | 0.00 | 91 | 1015.1 | |
| 20260505231110 | 5 | 0.0 | 0.0 | 0.00 | 0.18 | 0.00 | 91 | 1015.2 | |
| 20260505230104 | 5 | 56 | 1.6 | 3.2 | 0.00 | 0.18 | 0.00 | 91 | 1015.1 |
| 20260505225119 | 6 | 45 | 0.0 | 6.4 | 0.00 | 0.18 | 0.00 | 91 | 1015.4 |
| 20260505224115 | 6 | 0 | 0.0 | 3.2 | 0.00 | 0.18 | 0.00 | 90 | 1015.3 |
| 20260505223109 | 6 | 45 | 4.8 | 6.4 | 0.00 | 0.18 | 0.00 | 90 | 1015.4 |
| 20260505222046 | 6 | 67 | 6.4 | 9.7 | 0.00 | 0.18 | 0.00 | 90 | 1015.4 |
| 20260505221041 | 6 | 53 | 1.6 | 3.2 | 0.00 | 0.18 | 0.00 | 90 | 1015.5 |
| 20260505220034 | 6 | 338 | 3.2 | 3.2 | 0.00 | 0.18 | 0.00 | 89 | 1015.6 |
| 20260505215028 | 6 | 0.0 | 0.0 | 0.00 | 0.18 | 0.18 | 89 | 1015.6 | |
| 20260505214023 | 6 | 45 | 1.6 | 3.2 | 0.00 | 0.18 | 0.18 | 90 | 1015.6 |
| 20260505213039 | 6 | 23 | 1.6 | 3.2 | 0.00 | 0.18 | 0.18 | 90 | 1015.7 |
| 20260505212114 | 6 | 23 | 0.0 | 3.2 | 0.00 | 0.18 | 0.18 | 90 | 1015.9 |
| 20260505211109 | 6 | 0 | 0.0 | 3.2 | 0.00 | 0.18 | 0.18 | 89 | 1015.8 |
| 20260505210104 | 6 | 329 | 3.2 | 6.4 | 0.00 | 0.18 | 0.18 | 88 | 1015.8 |
| 20260505205100 | 6 | 340 | 1.6 | 6.4 | 0.00 | 0.18 | 0.18 | 87 | 1015.6 |
| 20260505204053 | 6 | 45 | 4.8 | 6.4 | 0.00 | 0.18 | 0.18 | 87 | 1015.4 |
| 20260505203048 | 7 | 0.0 | 0.0 | 0.00 | 0.18 | 0.18 | 87 | 1015.5 | |
| 20260505202103 | 7 | 45 | 0.0 | 3.2 | 0.00 | 0.18 | 0.18 | 86 | 1015.4 |
| 20260505201039 | 7 | 0.0 | 3.2 | 0.00 | 0.18 | 0.18 | 86 | 1015.4 | |
| 20260505200035 | 7 | 45 | 1.6 | 3.2 | 0.00 | 0.18 | 0.18 | 84 | 1015.4 |